TimeMST,TemperatureF,Dew PointF,Humidity,Sea Level PressureIn,VisibilityMPH,Wind Direction,Wind SpeedMPH,Gust SpeedMPH,PrecipitationIn,Events,Conditions,WindDirDegrees,DateUTC
12:57 AM,84.9,48.9,29,29.77,10.0,Calm,Calm,-,N/A,,Clear,0,2013-08-03 07:57:00
1:57 AM,86.0,48.0,27,29.77,10.0,SE,3.5,-,N/A,,Clear,130,2013-08-03 08:57:00
2:57 AM,86.0,48.0,27,29.76,10.0,SE,8.1,-,N/A,,Clear,140,2013-08-03 09:57:00
3:57 AM,84.9,52.0,32,29.76,10.0,SE,5.8,-,N/A,,Clear,140,2013-08-03 10:57:00
4:57 AM,78.1,51.1,39,29.79,10.0,North,3.5,-,N/A,,Partly Cloudy,350,2013-08-03 11:57:00
5:57 AM,79.0,52.0,39,29.81,10.0,Calm,Calm,-,N/A,,Scattered Clouds,0,2013-08-03 12:57:00
6:57 AM,82.9,51.1,33,29.83,10.0,Calm,Calm,-,N/A,,Scattered Clouds,0,2013-08-03 13:57:00
7:57 AM,88.0,52.0,29,29.85,10.0,Calm,Calm,-,N/A,,Mostly Cloudy,0,2013-08-03 14:57:00
8:57 AM,91.0,54.0,28,29.86,10.0,SE,9.2,-,N/A,,Mostly Cloudy,140,2013-08-03 15:57:00
9:57 AM,93.9,45.0,18,29.85,10.0,SE,6.9,-,N/A,,Mostly Cloudy,140,2013-08-03 16:57:00
10:57 AM,100.0,34.0,10,29.84,10.0,SE,9.2,-,N/A,,Mostly Cloudy,130,2013-08-03 17:57:00
11:57 AM,100.0,36.0,11,29.83,10.0,South,10.4,-,N/A,,Mostly Cloudy,190,2013-08-03 18:57:00
12:57 PM,102.9,36.0,10,29.81,10.0,SSW,9.2,-,N/A,,Scattered Clouds,200,2013-08-03 19:57:00
1:57 PM,104.0,37.9,10,29.80,10.0,SSW,6.9,-,N/A,,Partly Cloudy,200,2013-08-03 20:57:00
2:57 PM,107.1,42.1,11,29.77,10.0,South,16.1,-,N/A,,Partly Cloudy,190,2013-08-03 21:57:00
3:57 PM,107.1,44.1,12,29.75,10.0,SW,11.5,18.4,N/A,,Partly Cloudy,220,2013-08-03 22:57:00
4:57 PM,107.1,27.0,6,29.73,10.0,SSW,11.5,-,N/A,,Partly Cloudy,200,2013-08-03 23:57:00
5:57 PM,106.0,23.0,5,29.72,10.0,SSW,12.7,-,N/A,,Partly Cloudy,200,2013-08-04 00:57:00
6:57 PM,102.0,27.0,7,29.73,10.0,South,9.2,-,N/A,,Partly Cloudy,190,2013-08-04 01:57:00
7:57 PM,98.1,25.0,7,29.74,10.0,South,12.7,-,N/A,,Partly Cloudy,180,2013-08-04 02:57:00
8:57 PM,93.9,37.0,14,29.76,10.0,SSE,10.4,-,N/A,,Partly Cloudy,150,2013-08-04 03:57:00
9:57 PM,90.0,48.0,24,29.78,10.0,SSE,10.4,-,N/A,,Clear,160,2013-08-04 04:57:00
10:57 PM,88.0,48.9,26,29.78,10.0,SSE,13.8,-,N/A,,Clear,160,2013-08-04 05:57:00
11:57 PM,86.0,53.1,32,29.78,10.0,South,6.9,-,N/A,,Partly Cloudy,180,2013-08-04 06:57:00